Regional Weather Roundup
Issued by NWS

Home | Current Version | Previous Version | Graphics & Text | Print | Product List | Glossary On
Versions: 1 2 3 4 5 6 7 8 9 10 11 12 13 14 15 16 17 18 19 20 21 22 23 24 25 26 27 28 29 30 31 32 33 34 35 36 37 38 39 40 41 42 43 44 45 46 47 48 49
000
ASUS45 KBOI 200610
RWRID
WEATHER ROUNDUP FOR IDAHO
NATIONAL WEATHER SERVICE BOISE ID
1200 AM MDT SAT SEP 20 2014

NOTE: "FAIR" INDICATES FEW OR NO CLOUDS BELOW 12000 FEET
WITH NO SIGNIFICANT WEATHER AND/OR OBSTRUCTIONS TO VISIBILITY

IDZ012-014-200700-
SOUTHWEST IDAHO


CITY           SKY/WX    TMP DP  RH WIND       PRES   REMARKS
BOISE          PTCLDY    65  45  48 CALM      30.05R
CALDWELL       PTCLDY    61  43  51 CALM      30.06R
MOUNTAIN HOME  CLEAR     60  43  52 NW3       30.05S
$$

IDZ016-017-200700-
SOUTHCENTRAL IDAHO


CITY           SKY/WX    TMP DP  RH WIND       PRES   REMARKS
BURLEY         CLEAR     52  44  74 SW7       30.11R
JEROME         CLEAR     59  45  59 S7        30.11R
TWIN FALLS     CLEAR     62  43  49 S10       30.12R
$$

IDZ019>023-200700-
SOUTHEAST IDAHO


CITY           SKY/WX    TMP DP  RH WIND       PRES   REMARKS
IDAHO FALLS    CLEAR     57  44  62 SW6       30.14R
POCATELLO      CLEAR     56  44  64 SE3       30.13S
REXBURG        CLEAR     62  40  44 S7        30.15R
$$

IDZ006-010-011-018-031-032-200700-
CENTRAL IDAHO MOUNTAINS


CITY           SKY/WX    TMP DP  RH WIND       PRES   REMARKS
MCCALL         CLEAR     56  44  64 N5        30.17R
HAILEY         CLEAR     57  43  58 NW8       30.17S
STANLEY          N/A     44  35  70 SE3       30.26R
SALMON         CLEAR     55  43  62 NW5       30.13R
CHALLIS        CLEAR     59  38  45 NW8       30.15R
$$

IDZ002-004-006-007-026-200700-
NORTHERN IDAHO


CITY           SKY/WX    TMP DP  RH WIND       PRES   REMARKS
LEWISTON       CLEAR     66  46  48 S3        30.07R
LOWELL           N/A     57  51  80 N3        30.13R
COEUR D`ALENE  CLEAR     55  45  67 CALM      30.10R
MULLAN PASS    PTCLDY    49  42  77 VRB3      30.24R
$$


USA.gov is the U.S. government's official web portal to all federal, state and local government web resources and services.